When you browse on this site, cookies collect data to enhance your experience and personalize the content and advertising you see.
Visit our Privacy Policy to learn more. By continuing to use the site, you agree to this use of cookies and data.
  • In United Kingdom
  • List of Countries
  • For 7 days
  • Water Temperature
  • Weather Map
  • Weather Widgets
  • user-avatar
    Login

    Hourly Weather Minsk

    Today, 23 February, Sunday

    Time Temperature Precipitation Wind Pressure Humidity
    00:00 +1°C° 0 mm 9 mps 734 mmHg 81%
    01:00 +1°C° 0 mm 9 mps 733 mmHg 81%
    02:00 +2°C° 0 mm 7 mps 732 mmHg 75%
    03:00 +2°C° 0.2 mm 7 mps 732 mmHg 76%
    04:00 +2°C° 0.2 mm 7 mps 732 mmHg 77%
    05:00 +1°C° 0.2 mm 8 mps 731 mmHg 78%
    06:00 0°C° 0.1 mm 8 mps 731 mmHg 80%
    07:00 0°C° 0.1 mm 8 mps 731 mmHg 82%
    08:00 -1°C° 0 mm 7 mps 731 mmHg 80%
    09:00 0°C° 0.1 mm 8 mps 731 mmHg 77%
    10:00 0°C° 0.1 mm 8 mps 731 mmHg 74%
    11:00 +1°C° 0.1 mm 9 mps 731 mmHg 71%
    12:00 +1°C° 0 mm 9 mps 731 mmHg 68%
    13:00 +1°C° 0 mm 9 mps 731 mmHg 66%
    14:00 +2°C° 0 mm 9 mps 732 mmHg 63%
    15:00 +1°C° 0 mm 8 mps 731 mmHg 64%
    16:00 +2°C° 0 mm 7 mps 731 mmHg 64%
    17:00 +2°C° 0 mm 6 mps 730 mmHg 65%
    18:00 +1°C° 0 mm 5 mps 730 mmHg 68%
    19:00 0°C° 0 mm 5 mps 730 mmHg 71%
    20:00 0°C° 0 mm 4 mps 729 mmHg 75%
    21:00 -1°C° 0 mm 4 mps 729 mmHg 78%
    22:00 -1°C° 0 mm 4 mps 728 mmHg 81%
    23:00 -1°C° 0 mm 3 mps 728 mmHg 84%

    Tomorrow, 24 February, Monday

    Time Temperature Precipitation Wind Pressure Humidity
    00:00 -1°C° 0 mm 3 mps 727 mmHg 85%
    01:00 -1°C° 0 mm 2 mps 727 mmHg 87%
    02:00 -1°C° 0 mm 2 mps 727 mmHg 88%
    03:00 -1°C° 0 mm 2 mps 727 mmHg 88%
    04:00 -1°C° 0 mm 2 mps 727 mmHg 88%
    05:00 -1°C° 0 mm 2 mps 726 mmHg 88%
    06:00 -1°C° 0 mm 3 mps 727 mmHg 88%
    07:00 -2°C° 0 mm 4 mps 728 mmHg 89%
    08:00 -2°C° 0 mm 4 mps 729 mmHg 90%
    09:00 -1°C° 0 mm 5 mps 729 mmHg 89%
    10:00 -2°C° 0 mm 6 mps 730 mmHg 88%
    11:00 -1°C° 0 mm 6 mps 730 mmHg 87%
    12:00 0°C° 0 mm 7 mps 731 mmHg 78%
    13:00 0°C° 0 mm 7 mps 732 mmHg 69%
    14:00 +2°C° 0 mm 7 mps 732 mmHg 60%
    15:00 +2°C° 0 mm 7 mps 733 mmHg 61%
    16:00 +1°C° 0 mm 6 mps 733 mmHg 63%
    17:00 -1°C° 0 mm 6 mps 734 mmHg 64%
    18:00 0°C° 0 mm 5 mps 735 mmHg 67%
    19:00 -1°C° 0 mm 5 mps 736 mmHg 69%
    20:00 -2°C° 0 mm 4 mps 736 mmHg 71%
    21:00 -2°C° 0 mm 4 mps 736 mmHg 73%
    22:00 -2°C° 0 mm 3 mps 737 mmHg 75%
    23:00 -2°C° 0 mm 3 mps 737 mmHg 76%

    Day after tomorrow, 25 February, Tuesday

    Time Temperature Precipitation Wind Pressure Humidity
    00:00 -2°C° 0 mm 2 mps 737 mmHg 77%
    01:00 -2°C° 0 mm 2 mps 737 mmHg 78%
    02:00 -2°C° 0 mm 2 mps 736 mmHg 79%
    03:00 -2°C° 0 mm 2 mps 736 mmHg 80%
    04:00 -2°C° 0 mm 3 mps 735 mmHg 80%
    05:00 -2°C° 0 mm 3 mps 735 mmHg 81%
    06:00 -2°C° 0 mm 3 mps 734 mmHg 80%
    07:00 -3°C° 0 mm 4 mps 734 mmHg 79%
    08:00 -2°C° 0 mm 4 mps 733 mmHg 79%
    09:00 -2°C° 0 mm 5 mps 733 mmHg 82%
    10:00 -2°C° 0 mm 6 mps 732 mmHg 85%
    11:00 -2°C° 0 mm 6 mps 731 mmHg 89%
    12:00 -2°C° 0.1 mm 6 mps 730 mmHg 91%
    13:00 -2°C° 0.1 mm 7 mps 729 mmHg 93%
    14:00 -2°C° 0.1 mm 7 mps 729 mmHg 95%
    15:00 -2°C° 0.2 mm 7 mps 728 mmHg 95%
    16:00 -1°C° 0.2 mm 6 mps 727 mmHg 96%
    17:00 -1°C° 0.2 mm 6 mps 726 mmHg 96%
    18:00 +1°C° 0.2 mm 6 mps 726 mmHg 96%
    19:00 +1°C° 0.2 mm 6 mps 726 mmHg 95%
    20:00 +2°C° 0.2 mm 6 mps 726 mmHg 95%
    21:00 +2°C° 0.1 mm 6 mps 725 mmHg 95%
    22:00 +2°C° 0.1 mm 5 mps 725 mmHg 95%
    23:00 +2°C° 0.1 mm 5 mps 725 mmHg 94%

    26 February, Wednesday

    Time Temperature Precipitation Wind Pressure Humidity
    00:00 +1°C° 0.8 mm 4 mps 725 mmHg 94%
    01:00 0°C° 0.8 mm 4 mps 724 mmHg 94%
    02:00 +1°C° 0.8 mm 3 mps 724 mmHg 94%
    03:00 -1°C° 0 mm 4 mps 724 mmHg 91%
    04:00 -1°C° 0 mm 4 mps 724 mmHg 89%
    05:00 -1°C° 0 mm 4 mps 724 mmHg 87%
    06:00 -1°C° 0 mm 5 mps 724 mmHg 86%
    07:00 -1°C° 0 mm 5 mps 724 mmHg 85%
    08:00 -1°C° 0 mm 5 mps 724 mmHg 84%
    09:00 -2°C° 0 mm 6 mps 725 mmHg 79%
    10:00 -1°C° 0 mm 7 mps 725 mmHg 75%
    11:00 0°C° 0 mm 7 mps 725 mmHg 70%
    12:00 0°C° 0 mm 8 mps 725 mmHg 67%
    13:00 +1°C° 0 mm 8 mps 725 mmHg 65%
    14:00 +1°C° 0 mm 8 mps 725 mmHg 62%
    15:00 +2°C° 0 mm 7 mps 725 mmHg 63%
    16:00 +2°C° 0 mm 6 mps 725 mmHg 64%
    17:00 +1°C° 0 mm 5 mps 725 mmHg 66%
    18:00 +1°C° 0 mm 5 mps 726 mmHg 68%
    19:00 0°C° 0 mm 5 mps 726 mmHg 70%
    20:00 0°C° 0 mm 5 mps 726 mmHg 73%
    21:00 -1°C° 0 mm 4 mps 726 mmHg 74%
    22:00 -1°C° 0 mm 4 mps 726 mmHg 74%
    23:00 -1°C° 0 mm 4 mps 726 mmHg 75%

    27 February, Thursday

    Time Temperature Precipitation Wind Pressure Humidity
    00:00 -1°C° 0 mm 4 mps 726 mmHg 74%
    01:00 -1°C° 0 mm 4 mps 726 mmHg 74%
    02:00 -1°C° 0 mm 5 mps 726 mmHg 73%
    03:00 -1°C° 0 mm 5 mps 726 mmHg 77%
    04:00 -1°C° 0 mm 4 mps 726 mmHg 81%
    05:00 -1°C° 0 mm 4 mps 726 mmHg 85%
    06:00 -2°C° 0 mm 4 mps 727 mmHg 86%
    07:00 -1°C° 0 mm 3 mps 727 mmHg 86%
    08:00 -1°C° 0 mm 3 mps 727 mmHg 87%
    09:00 0°C° 0 mm 3 mps 728 mmHg 84%
    10:00 0°C° 0 mm 3 mps 728 mmHg 81%
    11:00 +1°C° 0 mm 3 mps 728 mmHg 78%
    12:00 +1°C° 0 mm 3 mps 728 mmHg 75%
    13:00 +1°C° 0 mm 3 mps 729 mmHg 71%
    14:00 +1°C° 0 mm 3 mps 729 mmHg 68%
    15:00 +1°C° 0 mm 3 mps 729 mmHg 70%
    16:00 -1°C° 0 mm 4 mps 729 mmHg 72%
    17:00 -1°C° 0 mm 4 mps 730 mmHg 75%
    18:00 -1°C° 0 mm 3 mps 730 mmHg 77%
    19:00 -2°C° 0 mm 3 mps 730 mmHg 78%
    20:00 -3°C° 0 mm 2 mps 731 mmHg 80%
    21:00 -3°C° 0 mm 2 mps 731 mmHg 78%
    22:00 -3°C° 0 mm 2 mps 731 mmHg 77%
    23:00 -4°C° 0 mm 2 mps 731 mmHg 75%

    28 February, Friday

    Time Temperature Precipitation Wind Pressure Humidity
    00:00 -4°C° 0 mm 2 mps 731 mmHg 75%
    01:00 -4°C° 0 mm 2 mps 731 mmHg 75%
    02:00 -2°C° 0 mm 1 mps 731 mmHg 75%
    03:00 -2°C° 0 mm 1 mps 731 mmHg 74%
    04:00 -2°C° 0 mm 1 mps 731 mmHg 74%
    05:00 -2°C° 0 mm 1 mps 731 mmHg 74%
    06:00 -2°C° 0 mm 1 mps 731 mmHg 73%
    07:00 -2°C° 0 mm 1 mps 731 mmHg 72%
    08:00 -3°C° 0 mm 0 mps 731 mmHg 70%
    09:00 -1°C° 0 mm 1 mps 730 mmHg 64%
    10:00 0°C° 0 mm 1 mps 730 mmHg 57%
    11:00 -2°C° 0 mm 2 mps 730 mmHg 51%
    12:00 -1°C° 0 mm 2 mps 730 mmHg 50%
    13:00 -1°C° 0 mm 2 mps 730 mmHg 49%
    14:00 -1°C° 0 mm 2 mps 729 mmHg 48%
    15:00 -1°C° 0 mm 2 mps 729 mmHg 51%
    16:00 -1°C° 0 mm 2 mps 729 mmHg 54%
    17:00 -1°C° 0 mm 2 mps 729 mmHg 56%
    18:00 -1°C° 0 mm 2 mps 729 mmHg 59%
    19:00 -1°C° 0 mm 3 mps 729 mmHg 62%
    20:00 -2°C° 0 mm 3 mps 729 mmHg 64%
    21:00 -2°C° 0 mm 3 mps 730 mmHg 68%
    22:00 -2°C° 0 mm 3 mps 730 mmHg 71%
    23:00 -4°C° 0 mm 4 mps 730 mmHg 75%
    Show more